Regional Weather Roundup
Issued by NWS

Home | Current Version | Previous Version | Graphics & Text | Print | Product List | Glossary On
Versions: 1 2 3 4 5 6 7 8 9 10 11 12 13 14 15 16 17 18 19 20 21 22 23 24 25 26 27 28 29 30 31 32 33 34 35 36 37 38 39 40 41 42 43 44 45 46 47 48 49 50
251
ASUS43 KOAX 230210
RWRNE

WEATHER ROUNDUP FOR NEBRASKA
NATIONAL WEATHER SERVICE OMAHA NE
800 PM CST THU FEB 22 2018

NOTES: SATELLITE DATA IS BEING USED TO AUGMENT CLOUD COVER ABOVE
       12000 FEET.
       "FAIR" INDICATES FEW OR NO CLOUDS BELOW 12,000 FEET WITH NO
       SIGNIFICANT WEATHER AND/OR OBSTRUCTIONS TO VISIBILITY.


NEZ001>004-019>022-054>056-230300-
NEBRASKA PANHANDLE

CITY           SKY/WX    TMP DP  RH WIND       PRES   REMARKS
SCOTTSBLUFF    PTCLDY    12  10  92 E6        30.03R WCI   3
ALLIANCE       PTCLDY    12  12 100 SW5       30.03R WCI   4
CHADRON        CLEAR      7   4  87 W3        30.07R
GORDON         FAIR      18  16  90 SW5       30.03S WCI  11
KIMBALL        MOCLDY    11   8  88 W9        30.02R WCI  -2
SIDNEY         MOCLDY    20  15  81 W7        30.03R WCI  11
$$

NEZ057>060-069>072-079>082-230300-
SOUTHWEST NEBRASKA

CITY           SKY/WX    TMP DP  RH WIND       PRES   REMARKS
NORTH PLATTE   CLOUDY    23  16  74 CALM      30.10S
IMPERIAL       CLOUDY    22  18  85 E6        30.07R WCI  14
LEXINGTON      CLOUDY    25  22  87 W6        30.13S WCI  18
MCCOOK         CLOUDY    23  22  96 CALM      30.11S
OGALLALA       CLOUDY    23  19  85 CALM      30.08R
$$

NEZ005>010-023>029-035>040-094-230300-
NORTH CENTRAL NEBRASKA

CITY           SKY/WX    TMP DP  RH WIND       PRES   REMARKS
VALENTINE      CLOUDY    18  14  84 SW7       30.09R WCI   9
AINSWORTH      CLOUDY    21  20  96 SW5       30.08F WCI  15
BROKEN BOW     CLOUDY    23  18  81 W5        30.12R WCI  17
O`NEILL        CLOUDY    22  22  98 CALM      30.13F
ORD            CLOUDY    23  20  88 SW3       30.13S
THEDFORD         N/A     22  19  89 S5        30.09S WCI  16
$$

NEZ041-046>049-061>064-073>077-083>087-230300-
SOUTH CENTRAL NEBRASKA

CITY           SKY/WX    TMP DP  RH WIND       PRES   REMARKS
GRAND ISLAND   CLOUDY    26  25  96 SW3       30.17R FOG
AURORA         CLOUDY    27  25  95 CALM      30.17R FOG
HASTINGS       CLOUDY    26  24  92 W5        30.16R FOG     WCI  20
HEBRON         MIX PCPN  31  30  97 CALM      30.17S
HOLDREGE       CLOUDY    25  25  99 W3        30.14R
KEARNEY        CLOUDY    25  23  92 SW6       30.16R WCI  18
YORK           LGT SNOW  27  27 100 CALM      30.18R
$$

NEZ011>018-030>034-042>045-230300-
NORTHEAST NEBRASKA

CITY           SKY/WX    TMP DP  RH WIND       PRES   REMARKS
NORFOLK        SNOW      24  24 100 W3        30.15S VSB 1/2
ALBION         LGT SNOW  25  23  91 CALM      30.16S
BLAIR          MIX PCPN  31  30  96 CALM      30.17F
COLUMBUS       LGT SNOW  26  23  88 CALM      30.19R FOG
FREMONT        LGT SNOW  29  29  99 CALM      30.19S VSB 1
TEKAMAH        LGT SNOW  29  28  96 SW6       30.20F VSB 3/4 WCI  23
WAYNE          LGT SNOW  26  25  96 CALM      30.17S
$$

NEZ050>053-065>068-078-088>093-230300-
SOUTHEAST NEBRASKA

CITY           SKY/WX    TMP DP  RH WIND       PRES   REMARKS
LINCOLN        CLOUDY    30  29  96 S3        30.20S FOG
OMAHA EPPLEY   FRZ DRZL  32  30  92 SW5       30.21F FOG     WCI  27
BEATRICE       CLOUDY    32  32  99 CALM      30.17S FOG
FALLS CITY     FRZ RAIN  31  30  96 SW5       30.20R FOG     WCI  26
NEBRASKA CITY  MIX PCPN  32  32 100 SW3       30.19F
PLATTSMOUTH    MIX PCPN  31  31  99 SW5       30.19F WCI  26
$$

NEZ044-045-051>053-067-230300-
OMAHA AREA

CITY           SKY/WX    TMP DP  RH WIND       PRES   REMARKS
OMAHA EPPLEY   FRZ DRZL  32  30  92 SW5       30.21F FOG     WCI  27
BLAIR          MIX PCPN  31  30  96 CALM      30.17F
FREMONT        LGT SNOW  29  29  99 CALM      30.19S VSB 1
MILLARD        LGT SNOW  32  31  94 CALM      30.19F
OFFUTT AFB     FRZ RAIN  31  30  96 CALM      30.19F FOG
PLATTSMOUTH    MIX PCPN  31  31  99 SW5       30.19F WCI  26
WAHOO          LGT SNOW  31  29  94 S3        30.19S
$$




USA.gov is the U.S. government's official web portal to all federal, state and local government web resources and services.